Location: Ch�risy
(50.2331°N, 2.9131°E)
Time: 01:52:32
(UTC+00:00)

NOSS 3-1 (A) - Pass Details

Date: 17 January 2021
Orbit: 735 x 1477 km, 63.4° (Epoch: 26 February)

Event Time Altitude Azimuth Distance (km) Brightness Sun altitude
Rises 18:26:40 0° 310° (NW) 3,718 7.2 -20.1°
Reaches altitude 10° 18:29:18 10° 318° (NW) 2,873 6.4 -20.5°
Maximum altitude 18:35:45 40° 27° (NNE) 1,696 4.5 -21.5°
Enters shadow 18:37:54 34° 61° (ENE) 1,929 4.5 -21.9°
